Time,TemperatureF,DewpointF,PressureIn,WindDirection,WindDirectionDegrees,WindSpeedMPH,WindSpeedGustMPH,Humidity,HourlyPrecipIn,Conditions,Clouds,dailyrainin,SoftwareType,DateUTC
2013-02-24 00:14:00,27.3,26.0,29.99,WSW,238,0.0,0.0,96,0.00,,,0.00,weatherlink.com 1.10,2013-02-24 05:14:00,
2013-02-24 00:29:00,27.3,26.0,29.99,WSW,237,0.0,0.0,96,0.00,,,0.00,weatherlink.com 1.10,2013-02-24 05:29:00,
2013-02-24 00:45:00,27.0,26.0,29.99,WSW,238,0.0,0.0,96,0.00,,,0.00,weatherlink.com 1.10,2013-02-24 05:45:00,
2013-02-24 01:00:00,26.7,26.0,29.99,SW,236,0.0,0.0,96,0.00,,,0.00,weatherlink.com 1.10,2013-02-24 06:00:00,
2013-02-24 01:15:00,26.7,26.0,30.00,SW,236,0.0,0.0,96,0.00,,,0.00,weatherlink.com 1.10,2013-02-24 06:15:00,
2013-02-24 01:30:00,26.7,26.0,30.00,SW,236,0.0,0.0,96,0.00,,,0.00,weatherlink.com 1.10,2013-02-24 06:30:00,
2013-02-24 01:45:00,26.8,26.0,30.00,SW,236,0.0,0.0,96,0.00,,,0.00,weatherlink.com 1.10,2013-02-24 06:45:00,
2013-02-24 02:00:00,26.9,26.0,30.00,SW,236,0.0,0.0,96,0.00,,,0.00,weatherlink.com 1.10,2013-02-24 07:00:00,
2013-02-24 02:15:00,27.0,26.0,30.01,SW,236,0.0,0.0,96,0.00,,,0.00,weatherlink.com 1.10,2013-02-24 07:15:00,
2013-02-24 02:30:00,27.2,27.0,30.01,SW,236,0.0,0.0,97,0.00,,,0.00,weatherlink.com 1.10,2013-02-24 07:30:00,
2013-02-24 02:45:00,27.3,27.0,30.01,SW,231,0.0,0.0,97,0.00,,,0.00,weatherlink.com 1.10,2013-02-24 07:45:00,
2013-02-24 03:00:00,27.3,27.0,30.01,SW,231,0.0,0.0,97,0.00,,,0.00,weatherlink.com 1.10,2013-02-24 08:00:00,
2013-02-24 03:15:00,27.3,27.0,30.01,SW,230,0.0,0.0,97,0.00,,,0.00,weatherlink.com 1.10,2013-02-24 08:15:00,
2013-02-24 03:30:00,27.5,27.0,30.01,SW,231,0.0,0.0,97,0.00,,,0.00,weatherlink.com 1.10,2013-02-24 08:30:00,
2013-02-24 03:45:00,27.4,27.0,30.02,SW,231,0.0,0.0,97,0.00,,,0.00,weatherlink.com 1.10,2013-02-24 08:45:00,
2013-02-24 04:00:00,27.5,27.0,30.02,SW,231,0.0,0.0,97,0.00,,,0.00,weatherlink.com 1.10,2013-02-24 09:00:00,
2013-02-24 04:15:00,27.7,27.0,30.02,SE,134,0.0,0.0,97,0.00,,,0.00,weatherlink.com 1.10,2013-02-24 09:15:00,
2013-02-24 04:30:00,27.8,27.0,30.02,SSE,160,0.0,0.0,97,0.00,,,0.00,weatherlink.com 1.10,2013-02-24 09:30:00,
2013-02-24 04:45:00,27.8,27.0,30.03,SSE,160,0.0,0.0,97,0.00,,,0.00,weatherlink.com 1.10,2013-02-24 09:45:00,
2013-02-24 05:00:00,27.9,27.0,30.03,ENE,67,0.0,0.0,97,0.00,,,0.00,weatherlink.com 1.10,2013-02-24 10:00:00,
2013-02-24 05:15:00,27.8,27.0,30.04,ENE,67,0.0,0.0,96,0.00,,,0.00,weatherlink.com 1.10,2013-02-24 10:15:00,
2013-02-24 05:30:00,27.7,27.0,30.04,ENE,67,0.0,0.0,97,0.00,,,0.00,weatherlink.com 1.10,2013-02-24 10:30:00,
2013-02-24 05:45:00,27.7,27.0,30.05,ENE,66,0.0,0.0,96,0.00,,,0.00,weatherlink.com 1.10,2013-02-24 10:45:00,
2013-02-24 06:00:00,27.5,27.0,30.06,ENE,66,0.0,0.0,96,0.00,,,0.00,weatherlink.com 1.10,2013-02-24 11:00:00,
2013-02-24 06:15:00,27.5,27.0,30.07,ENE,66,0.0,0.0,97,0.00,,,0.00,weatherlink.com 1.10,2013-02-24 11:15:00,
2013-02-24 06:30:00,27.7,27.0,30.07,ESE,120,0.0,0.0,97,0.00,,,0.00,weatherlink.com 1.10,2013-02-24 11:30:00,
2013-02-24 06:45:00,28.0,27.0,30.08,ENE,75,0.0,0.0,97,0.00,,,0.00,weatherlink.com 1.10,2013-02-24 11:45:00,
2013-02-24 07:00:00,27.9,27.0,30.09,ENE,75,0.0,0.0,96,0.00,,,0.00,weatherlink.com 1.10,2013-02-24 12:00:00,
2013-02-24 07:15:00,27.8,27.0,30.10,ENE,75,0.0,0.0,96,0.00,,,0.00,weatherlink.com 1.10,2013-02-24 12:15:00,
2013-02-24 07:30:00,27.3,26.0,30.10,ENE,75,0.0,0.0,96,0.00,,,0.00,weatherlink.com 1.10,2013-02-24 12:30:00,
2013-02-24 07:45:00,27.3,26.0,30.11,ENE,75,0.0,0.0,96,0.00,,,0.00,weatherlink.com 1.10,2013-02-24 12:45:00,
2013-02-24 08:00:00,27.8,27.0,30.12,NE,43,0.0,0.0,95,0.00,,,0.00,weatherlink.com 1.10,2013-02-24 13:00:00,
2013-02-24 08:15:00,27.7,26.0,30.12,East,98,0.0,0.0,94,0.00,,,0.00,weatherlink.com 1.10,2013-02-24 13:15:00,
2013-02-24 08:30:00,27.5,26.0,30.13,ENE,59,0.0,0.0,93,0.00,,,0.00,weatherlink.com 1.10,2013-02-24 13:30:00,
2013-02-24 08:45:00,26.3,24.0,30.13,NNW,332,0.0,0.0,92,0.00,,,0.00,weatherlink.com 1.10,2013-02-24 13:45:00,
2013-02-24 09:01:00,27.3,26.0,30.14,NNW,332,0.0,0.0,93,0.00,,,0.00,weatherlink.com 1.10,2013-02-24 14:01:00,
2013-02-24 09:16:00,30.1,28.0,30.14,NNW,332,0.0,0.0,90,0.00,,,0.00,weatherlink.com 1.10,2013-02-24 14:16:00,
2013-02-24 09:31:00,31.5,28.0,30.15,WNW,285,0.0,0.0,86,0.00,,,0.00,weatherlink.com 1.10,2013-02-24 14:31:00,
2013-02-24 09:46:00,31.8,27.0,30.16,WNW,297,0.0,0.0,83,0.00,,,0.00,weatherlink.com 1.10,2013-02-24 14:46:00,
2013-02-24 10:01:00,31.7,28.0,30.17,ENE,63,0.0,0.0,85,0.00,,,0.00,weatherlink.com 1.10,2013-02-24 15:01:00,
2013-02-24 10:16:00,31.8,27.0,30.17,NNW,336,1.0,2.0,83,0.00,,,0.00,weatherlink.com 1.10,2013-02-24 15:16:00,
2013-02-24 10:31:00,32.1,27.0,30.17,NNW,333,1.0,6.0,82,0.00,,,0.00,weatherlink.com 1.10,2013-02-24 15:31:00,
2013-02-24 10:46:00,32.7,27.0,30.18,NW,316,3.0,4.0,80,0.00,,,0.00,weatherlink.com 1.10,2013-02-24 15:46:00,
2013-02-24 11:01:00,32.4,27.0,30.18,NW,315,3.0,4.0,79,0.00,,,0.00,weatherlink.com 1.10,2013-02-24 16:01:00,
2013-02-24 11:16:00,32.7,27.0,30.18,NNW,338,1.0,3.0,78,0.00,,,0.00,weatherlink.com 1.10,2013-02-24 16:16:00,
2013-02-24 11:31:00,32.8,27.0,30.19,NNW,333,3.0,4.0,79,0.00,,,0.00,weatherlink.com 1.10,2013-02-24 16:31:00,
2013-02-24 11:46:00,32.5,27.0,30.19,NNW,335,2.0,3.0,80,0.00,,,0.00,weatherlink.com 1.10,2013-02-24 16:46:00,
2013-02-24 12:01:00,32.7,27.0,30.20,NNW,348,2.0,4.0,78,0.00,,,0.00,weatherlink.com 1.10,2013-02-24 17:01:00,
2013-02-24 12:16:00,32.9,27.0,30.20,WNW,294,3.0,4.0,78,0.00,,,0.00,weatherlink.com 1.10,2013-02-24 17:16:00,
2013-02-24 12:31:00,33.5,27.0,30.20,NNW,338,2.0,4.0,78,0.00,,,0.00,weatherlink.com 1.10,2013-02-24 17:31:00,
2013-02-24 12:46:00,34.1,28.0,30.20,NNW,338,4.0,6.0,77,0.01,,,0.01,weatherlink.com 1.10,2013-02-24 17:46:00,
2013-02-24 13:01:00,33.5,28.0,30.20,NW,315,3.0,4.0,80,0.02,,,0.02,weatherlink.com 1.10,2013-02-24 18:01:00,
2013-02-24 13:16:00,34.5,28.0,30.20,North,352,2.0,2.0,76,0.03,,,0.03,weatherlink.com 1.10,2013-02-24 18:16:00,
2013-02-24 13:31:00,34.4,27.0,30.20,NNW,332,3.0,3.0,75,0.03,,,0.03,weatherlink.com 1.10,2013-02-24 18:31:00,
2013-02-24 13:46:00,34.3,27.0,30.20,North,6,3.0,4.0,76,0.03,,,0.04,weatherlink.com 1.10,2013-02-24 18:46:00,
2013-02-24 14:01:00,35.1,27.0,30.20,NW,325,3.0,3.0,73,0.03,,,0.05,weatherlink.com 1.10,2013-02-24 19:01:00,
2013-02-24 14:16:00,34.7,26.0,30.20,NNW,336,1.0,4.0,71,0.03,,,0.06,weatherlink.com 1.10,2013-02-24 19:16:00,
2013-02-24 14:31:00,33.9,27.0,30.20,NW,318,4.0,5.0,77,0.04,,,0.07,weatherlink.com 1.10,2013-02-24 19:31:00,
2013-02-24 14:46:00,34.6,27.0,30.21,NW,318,2.0,3.0,75,0.03,,,0.07,weatherlink.com 1.10,2013-02-24 19:46:00,
2013-02-24 15:01:00,33.8,26.0,30.21,NNW,335,2.0,3.0,74,0.03,,,0.08,weatherlink.com 1.10,2013-02-24 20:01:00,
2013-02-24 15:16:00,33.4,27.0,30.21,NNW,338,1.0,3.0,77,0.03,,,0.09,weatherlink.com 1.10,2013-02-24 20:16:00,
2013-02-24 15:31:00,35.5,28.0,30.22,NW,309,1.0,3.0,75,0.02,,,0.09,weatherlink.com 1.10,2013-02-24 20:31:00,
2013-02-24 15:46:00,35.2,27.0,30.22,WNW,291,1.0,5.0,73,0.03,,,0.10,weatherlink.com 1.10,2013-02-24 20:46:00,
2013-02-24 16:01:00,34.9,26.0,30.23,NW,319,2.0,5.0,71,0.03,,,0.11,weatherlink.com 1.10,2013-02-24 21:01:00,
2013-02-24 16:16:00,33.7,28.0,30.23,NW,304,3.0,3.0,78,0.02,,,0.11,weatherlink.com 1.10,2013-02-24 21:16:00,
2013-02-24 16:31:00,33.5,28.0,30.24,West,278,3.0,4.0,80,0.03,,,0.12,weatherlink.com 1.10,2013-02-24 21:31:00,
2013-02-24 16:46:00,33.2,28.0,30.24,NNW,328,2.0,5.0,81,0.02,,,0.12,weatherlink.com 1.10,2013-02-24 21:46:00,
2013-02-24 17:01:00,33.0,28.0,30.24,NW,312,2.0,4.0,82,0.01,,,0.12,weatherlink.com 1.10,2013-02-24 22:01:00,
2013-02-24 17:17:00,32.8,28.0,30.25,NNW,328,2.0,5.0,83,0.02,,,0.13,weatherlink.com 1.10,2013-02-24 22:17:00,
2013-02-24 17:32:00,32.6,28.0,30.25,North,359,3.0,4.0,84,0.01,,,0.13,weatherlink.com 1.10,2013-02-24 22:32:00,
2013-02-24 17:47:00,32.5,28.0,30.26,NW,325,3.0,7.0,83,0.01,,,0.13,weatherlink.com 1.10,2013-02-24 22:47:00,
2013-02-24 18:02:00,32.2,28.0,30.26,NW,325,4.0,6.0,83,0.01,,,0.13,weatherlink.com 1.10,2013-02-24 23:02:00,
2013-02-24 18:17:00,32.0,28.0,30.26,WNW,300,2.0,5.0,85,0.00,,,0.13,weatherlink.com 1.10,2013-02-24 23:17:00,
2013-02-24 18:32:00,31.8,28.0,30.26,NNW,340,3.0,5.0,86,0.00,,,0.13,weatherlink.com 1.10,2013-02-24 23:32:00,
2013-02-24 18:47:00,31.6,28.0,30.27,NNW,337,3.0,3.0,87,0.00,,,0.13,weatherlink.com 1.10,2013-02-24 23:47:00,
2013-02-24 19:02:00,31.4,28.0,30.27,WNW,298,1.0,3.0,88,0.00,,,0.13,weatherlink.com 1.10,2013-02-25 00:02:00,
2013-02-24 19:17:00,31.3,28.0,30.27,NW,311,0.0,2.0,88,0.00,,,0.13,weatherlink.com 1.10,2013-02-25 00:17:00,
2013-02-24 19:32:00,31.3,28.0,30.28,NW,304,0.0,1.0,87,0.00,,,0.13,weatherlink.com 1.10,2013-02-25 00:32:00,
2013-02-24 19:47:00,31.2,28.0,30.28,WNW,290,0.0,0.0,88,0.00,,,0.13,weatherlink.com 1.10,2013-02-25 00:47:00,
2013-02-24 20:02:00,30.8,28.0,30.28,SSW,212,0.0,0.0,89,0.00,,,0.13,weatherlink.com 1.10,2013-02-25 01:02:00,
2013-02-24 20:17:00,30.9,28.0,30.28,South,169,0.0,2.0,89,0.00,,,0.13,weatherlink.com 1.10,2013-02-25 01:17:00,
2013-02-24 20:32:00,30.9,28.0,30.29,West,277,0.0,1.0,88,0.00,,,0.13,weatherlink.com 1.10,2013-02-25 01:32:00,
2013-02-24 20:47:00,30.9,28.0,30.29,NW,316,0.0,0.0,89,0.00,,,0.13,weatherlink.com 1.10,2013-02-25 01:47:00,
2013-02-24 21:02:00,30.6,28.0,30.29,WNW,285,0.0,1.0,90,0.00,,,0.13,weatherlink.com 1.10,2013-02-25 02:02:00,
2013-02-24 21:17:00,30.4,28.0,30.29,WNW,285,0.0,0.0,91,0.00,,,0.13,weatherlink.com 1.10,2013-02-25 02:17:00,
2013-02-24 21:32:00,30.4,28.0,30.29,WNW,285,0.0,0.0,91,0.00,,,0.13,weatherlink.com 1.10,2013-02-25 02:32:00,
2013-02-24 21:47:00,30.6,28.0,30.30,WNW,285,0.0,0.0,89,0.00,,,0.13,weatherlink.com 1.10,2013-02-25 02:47:00,
2013-02-24 22:02:00,30.4,28.0,30.30,SW,214,0.0,0.0,91,0.00,,,0.13,weatherlink.com 1.10,2013-02-25 03:02:00,
2013-02-24 22:17:00,30.1,28.0,30.30,SE,139,0.0,0.0,91,0.00,,,0.13,weatherlink.com 1.10,2013-02-25 03:17:00,
2013-02-24 22:32:00,30.1,28.0,30.30,SE,139,0.0,0.0,92,0.00,,,0.13,weatherlink.com 1.10,2013-02-25 03:32:00,
2013-02-24 22:47:00,30.0,28.0,30.30,SE,139,0.0,0.0,92,0.00,,,0.13,weatherlink.com 1.10,2013-02-25 03:47:00,
2013-02-24 23:02:00,30.0,28.0,30.30,SW,219,0.0,1.0,92,0.00,,,0.13,weatherlink.com 1.10,2013-02-25 04:02:00,
2013-02-24 23:17:00,30.0,28.0,30.30,SSE,160,0.0,0.0,92,0.00,,,0.13,weatherlink.com 1.10,2013-02-25 04:17:00,
2013-02-24 23:32:00,29.9,28.0,30.30,ESE,112,0.0,0.0,92,0.00,,,0.13,weatherlink.com 1.10,2013-02-25 04:32:00,